Вернуться в каталог

STARLINK-11631

АктивенСвязьVLEO
NORAD 63195·PAYLOAD·🇺🇸 United States

Запущен Mar 13, 2025 с Cape Canaveral Space Force Station

Loading…

Ближайшие Пролёты (ближайшие 24 часа)

TLE

СвежийSource: CelesTrak SupGP

Эпоха: Sep 15, 2026, 02:53 UTC

1 63195C 25048N   26258.12062500 -.00010459  00000+0 -81208-4 0  2583
2 63195  43.0005 258.5250 0001432 254.4889 284.8623 15.70851391    19

Отслеживайте STARLINK-11631 в реальном времени с AllMySat

Download on the App Store